Wind_Speed
4 3 1 1 3 5 6 8 9 10 11 11 12 12 13 14 15 15 15 15 15 15 14 14 14 14 14 13 13 13 14 13 13 13 13 14 14 14 13 13 12 12
5 5 4 2 0 2 3 5 6 7 8 9 10 10 10 11 13 13 13 13 13 13 13 13 13 13 13 13 13 13 13 13 13 13 13 13 13 13 13 13 13 13
6 7 7 5 3 2 0 1 3 4 5 7 7 8 8 9 10 11 12 12 12 12 12 12 12 12 12 13 13 13 13 13 13 13 13 13 12 12 13 13 13 13
8 8 8 7 6 5 3 2 1 1 3 4 5 6 6 6 7 8 9 10 11 11 10 10 10 10 11 11 12 12 13 13 13 13 13 13 13 12 12 12 12 12
11 10 9 8 8 8 6 4 3 2 1 1 2 3 4 5 5 6 7 8 9 9 9 9 9 9 9 10 10 11 11 12 12 13 13 13 13 13 13 13 13 13
12 12 11 10 10 10 9 7 6 5 4 3 2 1 2 3 3 4 5 5 6 7 8 8 8 8 8 9 9 10 10 11 11 12 13 14 14 14 14 14 14 14
13 13 14 13 12 12 11 10 8 7 7 6 5 3 2 1 1 2 3 4 5 6 6 7 8 7 8 8 8 9 10 11 11 12 13 14 14 14 14 15 15 15
15 14 15 15 14 14 13 12 11 10 9 9 8 7 5 4 3 3 3 4 5 5 6 6 7 7 8 8 8 8 9 10 11 12 13 13 14 14 15 15 16 16
19 17 16 16 16 16 15 14 13 13 11 11 11 10 9 8 7 6 6 6 6 6 6 6 7 7 8 9 8 8 9 9 10 11 12 13 13 14 15 15 16 16
24 22 20 18 17 17 17 16 16 15 14 13 13 12 12 11 10 10 9 9 8 8 7 7 7 7 7 9 9 9 8 8 9 10 10 11 12 13 13 14 15 15
28 27 24 22 20 18 18 18 18 17 16 16 15 15 15 14 14 13 12 12 11 10 9 9 8 8 8 8 9 9 8 8 8 8 8 9 9 10 11 12 13 14
32 31 28 25 23 21 20 19 19 19 18 18 17 17 17 17 17 16 16 15 14 13 12 11 10 10 9 9 9 9 8 7 7 7 7 7 8 8 9 10 11 12
35 33 30 28 26 24 23 23 21 20 19 19 19 19 19 19 19 19 19 19 18 16 15 13 12 11 11 10 10 10 9 7 6 6 5 5 6 7 7 8 9 10
36 34 32 30 28 26 26 26 24 23 21 21 20 20 19 19 20 20 21 22 22 20 18 17 15 13 13 12 11 11 10 8 7 6 5 4 5 5 6 6 7 8
37 36 34 33 31 28 27 28 27 26 23 22 22 22 21 20 20 21 22 23 23 23 22 20 18 16 14 14 13 12 11 9 8 7 6 4 4 4 4 4 5 6
39 38 36 35 33 30 29 30 31 30 27 23 23 24 24 23 22 22 22 23 23 24 24 24 22 19 17 15 15 14 13 11 9 8 7 5 4 3 3 3 3 4
41 39 38 36 34 33 33 33 33 34 32 27 24 24 25 26 25 24 23 22 22 23 24 24 22 20 19 17 17 16 16 14 11 10 9 7 5 4 3 1 1 2
42 40 38 37 36 35 34 33 33 34 36 32 29 27 27 28 27 27 26 25 23 23 23 22 21 20 19 18 18 18 18 17 14 12 10 9 7 6 5 3 1 0
43 41 39 39 39 37 34 34 33 34 36 36 34 33 31 30 29 28 28 27 26 24 24 22 21 19 18 18 19 19 19 19 18 15 13 11 10 8 7 6 4 3
42 42 42 42 41 39 37 37 36 36 36 37 37 36 34 32 31 30 30 29 29 27 25 24 22 20 19 19 19 20 20 20 21 19 17 14 12 11 10 9 8 6
45 43 43 44 43 41 39 39 39 38 38 38 38 38 36 35 35 34 32 32 32 30 27 25 23 21 19 19 19 19 21 22 23 22 20 18 15 13 12 12 11 9
51 46 45 45 44 42 41 41 41 40 39 39 40 39 37 37 38 37 36 35 36 35 32 28 24 21 19 18 17 18 20 23 25 24 23 21 18 16 14 14 14 13
56 52 49 48 46 43 41 42 44 43 40 40 41 41 39 39 39 41 40 38 38 39 39 34 28 23 21 20 19 18 19 22 25 26 26 24 21 18 16 16 15 15
61 58 56 55 53 49 43 40 42 44 42 40 41 42 41 40 40 41 42 40 39 41 43 40 33 28 26 26 24 21 20 22 24 26 27 27 24 21 19 18 17 17
65 64 63 62 61 59 52 45 41 41 42 44 45 43 42 42 42 41 42 43 41 42 43 43 40 36 33 31 28 25 22 21 22 25 28 28 26 23 21 20 19 18
68 68 68 68 68 67 62 56 51 48 47 49 50 48 44 44 44 44 43 43 43 42 43 43 44 44 40 34 32 30 27 24 22 24 26 27 27 26 24 22 21 20
Wind_Direction
186 181 165 109 60 56 58 58 56 53 52 50 50 49 49 49 50 50 50 49 48 48 48 48 48 48 48 46 44 42 39 35 33 31 28 26 25 24 24 24 23 22
204 207 211 219 186 68 63 58 57 55 53 52 52 51 49 49 48 49 48 48 48 48 48 47 45 45 45 45 44 42 40 36 33 31 29 27 25 23 21 20 18 17
219 215 221 228 232 221 208 57 52 52 53 53 53 51 49 49 47 45 45 45 45 45 45 45 42 40 40 40 40 39 37 35 32 28 27 24 22 20 19 17 15 14
244 231 228 229 231 236 239 243 277 29 47 50 53 51 45 44 42 41 39 38 39 39 41 42 39 36 36 36 35 34 32 30 27 24 22 19 16 14 13 13 12 10
268 258 247 233 230 237 242 241 243 251 267 8 48 50 43 38 34 32 29 29 30 30 32 34 33 31 30 30 30 29 29 26 23 21 18 15 11 8 7 7 7 6
271 270 265 251 236 237 243 242 240 241 245 250 260 329 32 31 22 14 11 12 14 17 19 21 24 23 20 22 22 22 22 22 20 19 17 14 10 6 5 3 3 4
266 265 267 264 251 243 245 245 240 238 240 245 249 250 258 294 332 341 339 342 347 353 1 6 9 9 8 11 13 13 14 16 15 16 16 15 11 8 6 5 5 6
267 261 260 263 260 252 247 247 245 242 241 242 246 247 249 254 258 274 295 305 315 326 334 343 351 354 354 356 2 6 9 11 11 12 14 13 10 9 9 8 9 10
266 265 260 256 256 256 251 246 246 247 245 243 243 246 247 250 253 256 266 277 287 299 307 315 325 334 340 342 348 356 2 8 9 10 12 10 7 9 10 9 11 13
258 263 265 260 253 255 254 250 248 249 250 248 245 246 246 249 253 254 259 266 272 280 286 293 302 312 323 328 333 342 352 1 5 9 13 9 5 8 10 10 12 15
252 253 259 262 257 255 253 249 247 248 250 251 250 249 248 249 253 256 259 262 267 273 277 281 288 293 302 312 318 326 338 350 357 4 11 9 6 9 12 12 13 16
249 248 251 258 261 261 258 253 249 246 246 250 252 253 253 253 254 256 260 262 265 269 273 276 280 283 289 297 304 311 322 335 345 355 6 5 3 11 16 17 16 19
247 248 250 256 260 263 265 265 261 255 251 250 251 254 256 259 260 260 261 264 266 269 271 274 275 277 282 287 292 299 308 319 327 340 357 360 356 7 18 19 21 24
245 250 255 258 258 258 263 266 264 262 261 258 256 256 259 262 265 264 265 268 270 272 273 275 275 275 278 281 285 291 298 306 313 320 335 349 348 358 17 23 25 28
241 248 255 257 256 256 262 265 261 257 258 260 259 260 260 263 265 268 269 271 274 276 277 278 279 279 279 281 284 287 292 298 302 306 314 328 334 345 9 25 31 34
237 244 250 253 253 256 259 260 256 253 252 253 254 256 258 259 259 262 265 268 271 274 277 279 281 282 282 283 285 288 290 292 295 297 301 304 310 320 348 22 36 44
238 244 248 250 252 255 255 254 252 252 253 254 255 256 259 260 259 259 260 262 265 267 271 275 278 280 281 282 285 287 288 290 290 291 292 294 294 297 304 334 21 48
241 246 247 248 250 254 256 254 252 253 253 254 256 258 262 264 264 264 264 263 264 265 269 272 273 274 276 277 279 283 286 288 288 287 286 286 287 286 284 283 278 261
243 245 245 246 248 251 252 251 251 252 253 253 255 259 264 265 264 266 268 268 269 271 273 275 274 272 271 271 272 274 280 285 286 285 283 282 283 282 279 274 263 244
242 244 245 246 245 245 247 248 248 249 251 253 254 257 261 263 262 265 268 268 267 269 272 275 276 274 270 268 266 267 270 275 280 281 280 278 278 277 275 272 265 251
243 245 246 244 240 241 244 246 248 248 249 251 251 252 255 256 257 262 267 267 266 266 268 271 272 273 270 265 263 262 262 265 271 276 278 276 273 270 270 269 266 257
243 245 244 239 237 240 242 244 246 248 250 252 251 250 252 251 252 257 264 267 267 264 264 267 268 270 269 265 261 259 259 262 268 273 277 277 273 268 265 265 265 261
242 242 241 235 233 237 241 243 246 248 252 256 255 254 253 252 253 257 261 264 264 261 259 262 266 268 267 263 259 256 255 259 264 270 274 277 275 271 266 263 263 262
241 239 238 236 235 239 241 242 244 247 250 253 253 254 254 253 254 257 260 262 263 259 256 257 263 266 263 259 255 251 249 251 254 260 267 271 272 272 269 265 262 261
240 239 238 238 239 243 244 241 239 241 244 246 247 250 255 255 255 256 259 261 261 258 254 255 258 261 261 259 255 251 251 254 256 259 264 268 270 270 269 266 261 259
240 240 240 240 241 243 244 241 236 236 239 242 243 246 251 255 255 255 256 257 257 256 254 254 255 257 260 261 259 255 254 258 263 264 267 272 274 273 270 266 261 257
Height
11038 11038 11038 11038 11038 11038 11038 11039 11039 11040 11040 11040 11039 11039 11039 11039 11038 11038 11037 11037 11037 11037 11036 11036 11036 11035 11035 11034 11034 11034 11033 11033 11032 11032 11031 11030 11030 11029 11028 11028 11027 11027
11039 11039 11038 11038 11038 11038 11038 11039 11039 11040 11040 11040 11040 11040 11040 11039 11039 11039 11038 11038 11037 11037 11037 11036 11036 11035 11035 11035 11034 11034 11033 11033 11032 11032 11031 11030 11030 11029 11028 11028 11027 11027
11039 11038 11038 11038 11038 11038 11038 11039 11039 11039 11040 11040 11040 11040 11040 11040 11039 11039 11039 11038 11038 11037 11037 11036 11036 11035 11034 11034 11034 11033 11033 11032 11032 11031 11031 11030 11030 11029 11028 11028 11027 11027
11039 11038 11038 11038 11038 11038 11038 11038 11039 11039 11039 11039 11040 11040 11040 11040 11039 11039 11039 11038 11038 11037 11037 11036 11035 11035 11034 11034 11033 11033 11032 11032 11031 11031 11030 11030 11029 11028 11028 11027 11027 11027
11039 11038 11038 11038 11038 11038 11038 11038 11038 11038 11039 11039 11039 11039 11039 11039 11039 11039 11038 11038 11038 11037 11037 11036 11036 11035 11034 11033 11033 11032 11032 11032 11031 11031 11030 11030 11029 11028 11028 11027 11027 11026
11039 11039 11038 11038 11038 11037 11037 11037 11038 11038 11038 11038 11038 11038 11039 11039 11038 11038 11038 11038 11038 11037 11037 11037 11036 11035 11034 11033 11033 11032 11032 11032 11031 11031 11030 11030 11029 11028 11028 11027 11027 11026
11038 11038 11038 11038 11037 11037 11037 11037 11037 11037 11037 11037 11037 11037 11038 11038 11038 11038 11037 11037 11037 11037 11037 11036 11036 11035 11034 11034 11033 11032 11032 11032 11031 11031 11031 11030 11030 11029 11029 11028 11027 11027
11038 11037 11037 11037 11037 11037 11036 11036 11036 11036 11036 11036 11036 11037 11037 11037 11037 11037 11036 11036 11036 11036 11036 11036 11036 11035 11034 11034 11033 11033 11032 11032 11032 11031 11031 11031 11030 11030 11030 11029 11029 11028
11037 11036 11036 11035 11035 11035 11035 11035 11035 11035 11035 11035 11035 11036 11036 11036 11036 11036 11036 11035 11035 11035 11035 11035 11035 11035 11034 11034 11033 11033 11033 11033 11032 11032 11032 11031 11031 11031 11030 11030 11030 11030
11035 11035 11034 11033 11033 11033 11034 11034 11034 11034 11034 11034 11034 11035 11035 11035 11035 11035 11035 11035 11035 11034 11034 11035 11035 11035 11034 11034 11033 11033 11033 11033 11033 11033 11033 11032 11032 11032 11031 11031 11031 11031
11033 11033 11033 11032 11031 11031 11031 11032 11032 11032 11032 11033 11033 11034 11034 11034 11034 11034 11035 11035 11034 11034 11034 11034 11034 11034 11034 11034 11033 11033 11033 11033 11033 11033 11033 11033 11032 11032 11032 11032 11032 11032
11031 11030 11030 11030 11030 11030 11029 11029 11029 11030 11030 11031 11032 11032 11033 11033 11034 11034 11034 11034 11034 11034 11034 11034 11035 11035 11035 11034 11034 11033 11034 11034 11034 11034 11034 11033 11033 11033 11033 11034 11034 11034
11029 11028 11028 11028 11029 11029 11029 11029 11029 11029 11029 11029 11030 11031 11032 11032 11033 11033 11033 11033 11034 11034 11034 11034 11035 11035 11035 11035 11034 11034 11034 11034 11034 11034 11034 11034 11034 11034 11034 11035 11035 11035
11027 11027 11027 11027 11027 11028 11028 11028 11028 11028 11029 11029 11029 11030 11031 11032 11032 11033 11033 11033 11033 11033 11034 11034 11034 11035 11035 11035 11035 11034 11034 11034 11034 11034 11034 11034 11034 11035 11035 11036 11036 11036
11024 11024 11024 11024 11025 11026 11026 11026 11026 11027 11028 11028 11029 11029 11030 11030 11031 11031 11032 11032 11032 11032 11033 11033 11034 11034 11035 11035 11035 11034 11034 11035 11035 11035 11035 11035 11035 11035 11036 11036 11037 11037
11018 11020 11021 11021 11022 11023 11024 11024 11024 11024 11024 11025 11026 11026 11027 11027 11028 11028 11029 11029 11030 11030 11030 11031 11032 11033 11034 11034 11034 11034 11034 11034 11035 11035 11035 11035 11035 11036 11036 11037 11037 11038
11014 11016 11017 11018 11020 11020 11020 11020 11020 11021 11021 11022 11022 11022 11023 11024 11024 11025 11025 11026 11026 11027 11027 11028 11030 11031 11032 11033 11033 11033 11033 11034 11034 11034 11035 11035 11035 11036 11036 11037 11038 11038
11011 11013 11014 11015 11016 11016 11016 11016 11018 11018 11018 11019 11019 11020 11020 11021 11022 11023 11023 11024 11024 11024 11024 11025 11027 11029 11030 11031 11032 11032 11032 11033 11033 11034 11034 11034 11035 11036 11036 11037 11037 11038
11005 11007 11009 11011 11012 11012 11012 11013 11014 11015 11015 11016 11017 11017 11018 11019 11020 11021 11022 11023 11024 11024 11024 11024 11025 11027 11028 11029 11030 11030 11030 11031 11031 11032 11033 11033 11034 11034 11035 11036 11037 11037
10999 11002 11003 11005 11006 11007 11007 11008 11010 11011 11012 11013 11014 11015 11016 11017 11018 11018 11019 11021 11022 11023 11023 11023 11023 11024 11025 11026 11027 11027 11027 11028 11028 11029 11030 11031 11032 11032 11033 11034 11035 11036
10994 10996 10998 10999 11001 11002 11003 11003 11004 11005 11007 11008 11010 11012 11013 11015 11015 11016 11017 11018 11019 11020 11021 11021 11020 11021 11021 11022 11023 11024 11024 11024 11024 11025 11026 11028 11029 11030 11031 11032 11033 11034
10989 10991 10992 10993 10995 10997 10998 10999 10999 11000 11002 11003 11005 11007 11009 11011 11012 11013 11014 11015 11017 11017 11017 11017 11017 11018 11018 11019 11020 11022 11022 11021 11021 11022 11023 11025 11026 11028 11029 11029 11030 11031
10983 10985 10986 10987 10989 10990 10992 10994 10995 10996 10997 10999 11000 11002 11005 11007 11008 11009 11010 11012 11013 11014 11013 11013 11015 11016 11017 11017 11017 11019 11020 11019 11019 11019 11020 11021 11023 11025 11027 11028 11028 11029
10976 10978 10980 10980 10982 10984 10986 10988 10990 10992 10993 10994 10995 10997 10999 11002 11004 11005 11006 11008 11010 11010 11009 11010 11012 11014 11013 11013 11013 11015 11016 11016 11017 11017 11017 11017 11019 11022 11024 11025 11026 11027
10968 10971 10973 10973 10974 10977 10980 10983 10985 10987 10988 10988 10989 10991 10994 10996 10999 11000 11001 11003 11005 11005 11006 11008 11009 11009 11009 11009 11011 11013 11013 11014 11015 11015 11014 11014 11016 11018 11020 11021 11023 11024
10960 10963 10965 10966 10967 10969 10973 10976 10979 10980 10981 10981 10983 10986 10989 10992 10993 10995 10996 10998 10999 11000 11003 11005 11005 11004 11005 11007 11009 11010 11011 11012 11013 11014 11013 11013 11014 11015 11016 11018 11019 11021